User: anonymous   Login
Location: Newark
(47.5333°N, 8.7000°E)
Time: 12:16:22
(UTC+00:00)
Language:

BEESAT 3 - Orbit

View from above orbital plane
View from above orbital plane
View from above satellite
View from above satellite

Ground track
Ground track

The orbit data is extracted from the following two-line orbital elements,

1 39134U 13015E   21135.73390110  .00002561  00000-0  11883-3 0  9994
2 39134  64.8636 278.8590 0005604 298.2184  61.8378 15.22471723446239
Epoch (UTC): 15 May 2021 17:36:49
Eccentricity: 0.0005604
inclination: 64.8636°
perigee height: 494 km
apogee height: 502 km
right ascension of ascending node: 278.8590°
argument of perigee: 298.2184°
revolutions per day: 15.22471723
mean anomaly at epoch: 61.8378°
orbit number at epoch: 44623

The dashed part of the orbit path shows where the satellite is in the earth's shadow,  

DLR